Wind_Speed
19 19 19 19 19 19 20 20 20 19 18 16 15 15 16 16 16 17 16 15 16 14 13 16 17 16 16 16 15 14 13 13 13 13 14 13 12 12 12 12 12 11 12 12 10 11 11 10 10 10 9 11 14 13 12 12 12 9 8 9 11 10 9 12 15 15 16 17 19 20 19 17 15 14 15 14 13 15 17 16 15 15 15 14 12 10 8
20 19 19 19 18 18 17 17 18 18 17 16 14 14 14 15 16 17 16 15 15 14 14 14 13 16 18 16 16 15 15 15 14 14 15 14 12 12 12 13 14 14 14 13 11 11 11 10 10 11 11 13 15 14 13 12 11 10 9 9 10 9 7 9 12 11 11 13 14 16 21 21 16 13 13 16 15 14 15 17 15 15 20 20 15 13 10
20 19 19 19 18 18 17 16 16 16 15 14 13 12 12 13 14 15 16 15 15 16 17 16 15 18 19 16 16 16 15 16 16 16 17 17 16 14 13 14 15 15 15 15 13 14 14 11 10 12 12 14 15 14 13 13 13 14 13 12 12 11 9 9 10 9 8 9 8 8 12 14 11 10 11 14 13 11 12 15 16 17 19 19 17 18 14
20 19 19 19 19 18 17 16 16 15 14 13 12 10 10 10 11 13 14 13 14 16 18 18 19 20 18 16 17 16 15 17 18 17 17 18 18 17 16 17 16 14 15 14 13 14 15 14 11 10 10 13 15 14 13 14 15 15 14 14 13 11 11 13 14 15 14 13 12 11 11 10 9 10 10 10 11 12 12 13 16 18 19 19 19 19 17
21 20 19 19 18 18 17 16 15 15 14 13 11 10 8 7 8 10 10 9 10 13 15 17 18 18 17 16 17 17 15 15 16 15 16 16 16 15 14 15 13 12 12 11 11 12 13 13 13 11 11 12 15 15 14 15 15 14 14 14 13 11 13 14 15 18 18 17 16 15 14 16 16 15 14 12 12 14 15 16 17 15 15 18 18 17 19
22 21 20 19 19 18 17 16 15 14 14 12 11 9 7 6 6 7 8 8 8 10 12 13 14 15 15 15 15 15 14 13 12 13 14 14 13 12 11 12 13 12 12 11 10 11 11 11 13 14 13 12 12 12 13 15 15 13 13 13 12 12 14 14 15 17 17 16 17 15 14 16 17 17 17 16 15 15 16 20 20 17 18 20 18 17 17
22 22 21 21 20 19 18 17 16 14 13 12 10 8 7 6 5 5 5 7 9 10 11 11 12 13 13 13 14 14 14 14 14 13 12 12 13 11 10 12 13 13 12 11 9 10 11 11 12 14 14 14 12 10 11 14 14 11 10 12 12 12 13 15 16 16 17 17 17 16 16 17 19 20 21 20 20 20 20 21 21 21 24 24 21 22 23
23 22 22 21 20 20 19 17 16 15 14 12 10 9 8 6 5 4 4 4 6 8 9 9 9 10 10 11 12 12 12 13 13 13 12 11 12 11 10 12 13 12 12 12 12 14 14 13 14 15 14 13 12 11 10 10 10 10 10 12 14 13 14 15 14 16 18 18 17 18 17 18 20 21 21 20 20 23 25 25 24 25 29 29 27 30 32
23 22 22 21 20 20 19 18 16 15 14 12 11 9 8 7 6 5 4 4 5 5 6 6 5 5 7 8 9 10 11 11 11 11 11 11 11 11 11 12 11 10 11 13 13 14 15 15 15 15 13 13 12 11 12 11 10 9 9 12 13 13 13 13 13 16 18 15 14 16 16 18 22 24 24 24 25 28 29 27 27 30 33 32 31 31 30
24 23 22 21 20 20 19 18 16 15 14 12 11 10 8 7 7 6 5 5 5 5 5 5 3 4 6 6 7 8 8 9 9 8 8 9 10 10 11 11 8 7 10 13 13 13 13 14 15 14 14 15 15 14 14 14 12 10 9 12 13 12 12 12 13 16 16 12 10 11 12 15 18 19 21 23 26 29 28 26 27 29 29 28 27 25 23
24 24 23 22 20 20 19 18 17 15 13 12 11 11 10 9 8 7 7 6 6 5 5 4 3 5 6 5 6 6 7 7 8 7 7 8 9 8 10 10 8 7 10 12 12 13 13 13 14 15 14 15 15 15 16 16 16 15 14 13 13 13 13 13 13 15 14 9 6 8 12 12 10 10 12 15 18 22 22 22 22 23 24 27 26 25 26
24 24 23 22 21 20 20 19 18 16 15 13 13 12 11 10 9 8 7 6 7 6 5 5 5 5 6 6 6 7 7 7 8 8 8 10 11 10 11 11 10 11 12 13 13 13 13 13 14 15 16 17 17 18 19 19 18 19 18 15 13 13 13 13 12 14 14 10 7 7 9 8 8 8 9 8 9 13 15 16 19 21 24 26 25 24 27
23 23 23 22 21 20 20 19 19 18 16 15 14 13 12 11 10 10 9 7 7 7 6 6 6 5 6 6 6 7 8 8 8 9 10 11 12 12 13 13 14 15 15 15 15 15 14 13 14 15 15 16 17 18 20 20 18 18 18 17 15 13 13 13 13 13 13 12 10 9 7 5 7 9 10 10 10 12 14 15 18 21 23 22 20 18 20
21 22 22 21 20 20 20 19 19 19 18 17 15 14 13 13 12 11 10 9 8 8 7 7 7 6 6 6 6 7 7 8 8 8 9 10 10 12 12 13 13 14 14 14 14 13 12 11 12 13 13 12 13 14 14 14 16 16 16 17 16 15 14 13 14 14 14 15 15 15 14 13 12 13 14 14 12 12 13 13 15 18 21 21 17 13 13
20 21 21 21 20 19 19 19 19 19 19 18 17 16 15 14 13 12 11 10 9 9 8 7 7 7 7 7 6 6 7 7 7 8 9 10 10 12 12 12 12 12 12 12 11 9 9 9 10 11 11 11 12 11 9 9 11 13 15 15 14 14 13 12 13 13 13 15 15 15 14 12 9 8 9 8 7 8 10 12 14 14 16 18 16 11 8
19 19 20 20 19 19 19 19 19 19 19 19 18 17 16 15 14 13 12 11 10 9 9 8 8 7 7 6 6 6 6 6 6 5 5 8 10 12 12 12 11 11 10 10 9 8 8 9 10 10 11 11 10 8 7 8 8 9 11 12 12 13 13 12 14 15 14 14 14 13 12 12 10 9 8 7 8 9 9 10 13 12 11 13 13 9 6
18 19 20 19 19 18 19 19 19 19 19 19 18 17 17 16 15 14 13 12 11 10 10 10 9 8 7 6 6 5 5 5 5 4 4 7 9 10 11 11 10 10 9 7 7 8 9 9 10 11 11 10 9 7 8 9 9 8 8 9 10 11 11 12 14 16 16 15 16 16 15 13 13 13 12 10 10 10 9 8 9 13 13 10 8 6 6
19 19 19 19 18 18 18 19 19 19 19 19 18 17 17 16 16 16 15 13 12 11 10 10 9 8 7 6 6 5 5 5 5 4 5 6 8 8 8 8 7 7 6 5 5 6 8 9 9 10 10 8 8 8 7 7 8 8 7 8 9 10 10 12 14 16 17 17 17 18 15 13 14 16 15 14 13 12 12 9 8 12 15 12 10 9 9
19 19 18 18 18 18 18 19 19 19 20 20 19 18 17 16 15 15 15 14 12 11 10 10 9 8 7 6 6 6 5 5 5 4 2 3 6 6 5 5 3 2 3 3 4 5 6 7 7 7 8 8 6 6 6 5 6 6 6 8 9 9 9 11 13 15 15 16 17 17 13 11 13 15 14 14 11 9 10 10 11 13 15 15 16 15 13
18 18 18 18 18 18 18 19 19 19 20 20 19 18 17 16 16 15 15 14 13 12 10 10 9 8 7 6 5 5 4 3 4 3 0 1 4 2 2 2 2 2 1 1 2 2 4 5 4 4 6 7 5 5 7 6 5 6 7 7 8 8 9 11 13 14 14 14 15 13 11 9 9 9 9 10 10 11 11 11 12 15 17 19 20 19 18
17 17 18 18 18 18 18 18 19 20 20 20 19 19 18 17 16 16 15 14 13 12 11 9 8 7 6 5 4 4 3 2 2 2 1 2 1 2 2 0 2 2 3 2 1 1 2 2 3 4 4 5 5 5 6 6 6 7 8 8 9 9 10 11 11 10 10 13 12 8 7 8 7 7 7 8 10 15 16 14 14 16 18 22 23 23 23
18 18 18 18 18 18 18 18 19 20 20 20 19 19 18 17 16 16 15 14 13 12 10 8 7 5 5 4 3 3 2 1 1 2 2 1 1 1 1 0 1 2 1 2 1 1 1 1 2 4 5 6 6 6 6 7 8 8 6 7 9 10 11 13 12 9 9 13 15 12 11 11 11 12 13 13 16 20 22 22 20 18 19 21 23 24 25
19 20 20 19 19 18 18 18 19 20 20 20 19 19 18 17 16 16 15 14 14 12 10 7 6 6 5 5 4 3 2 1 1 2 2 2 1 1 1 1 2 3 2 0 1 0 1 2 3 4 5 5 6 7 7 8 9 8 6 7 9 10 10 12 13 12 13 15 16 15 14 14 14 15 15 18 22 26 28 29 28 26 25 25 26 28 28
20 21 21 21 20 19 19 19 20 20 20 19 19 19 18 17 16 16 15 14 14 12 10 8 8 7 7 6 5 4 2 1 1 1 2 2 3 1 2 3 4 3 3 4 4 2 2 3 4 4 4 4 4 5 6 7 6 6 7 8 9 10 11 11 11 12 14 14 12 11 13 15 15 16 16 18 21 23 25 27 29 28 28 29 31 33 33
21 21 21 20 20 19 19 19 20 20 19 19 19 19 18 17 16 15 14 14 13 11 9 10 9 8 7 6 5 3 2 1 1 0 1 1 3 4 4 6 6 5 6 7 6 4 4 5 5 4 5 6 6 5 5 6 5 5 8 9 9 10 12 11 10 11 13 14 14 15 16 16 16 15 16 16 18 19 20 23 25 27 28 30 32 32 32
22 21 20 20 19 19 19 19 19 18 18 19 19 19 19 17 16 15 15 14 12 9 8 9 9 7 6 6 5 4 3 2 2 2 3 2 2 1 2 3 4 4 5 6 6 4 3 5 5 5 6 8 8 6 6 8 8 9 11 11 10 11 12 11 11 12 14 14 14 15 16 16 16 16 17 18 20 22 24 26 26 26 28 30 31 31 32
23 21 20 19 19 19 19 19 18 17 18 19 19 19 18 17 16 15 15 14 12 8 7 8 7 6 6 6 5 5 4 3 3 4 4 4 4 3 2 1 0 2 3 4 4 4 4 5 6 6 6 8 9 9 9 10 11 11 12 12 11 12 12 11 11 13 14 14 14 16 19 21 21 21 22 23 24 26 29 30 30 30 30 31 31 32 32
22 21 20 20 20 19 19 18 17 17 18 19 19 19 18 17 16 15 15 14 11 8 7 7 6 5 5 6 6 6 5 5 4 4 3 4 4 3 2 2 2 3 4 4 4 5 6 7 8 8 9 10 11 11 11 11 11 11 11 12 11 12 13 14 14 15 17 19 20 21 24 26 27 27 27 27 27 29 31 32 32 32 32 32 33 33 32
22 22 21 21 21 20 19 18 17 17 18 19 19 18 18 17 16 15 14 12 10 8 7 7 6 5 5 6 6 6 7 6 6 5 5 6 6 5 4 4 5 5 6 6 6 7 7 8 8 9 11 11 12 12 11 10 11 11 11 11 13 15 16 17 17 19 21 22 23 25 27 29 31 30 29 29 28 30 31 32 31 31 30 30 32 34 33
22 22 22 22 21 20 19 17 17 17 18 18 18 18 17 16 15 14 13 11 9 8 7 6 5 4 5 6 6 7 7 7 6 7 8 9 9 9 9 8 8 8 8 9 8 8 8 8 7 9 11 11 11 13 12 11 11 12 12 14 15 16 17 17 18 21 22 23 25 27 29 30 31 31 30 29 28 29 30 31 30 29 29 30 32 34 32
22 22 22 22 21 20 18 17 16 17 18 18 17 17 15 14 14 13 12 9 7 7 7 6 4 4 5 6 5 6 6 6 7 7 8 10 11 11 10 9 9 9 9 8 8 9 8 7 7 9 12 11 10 12 13 13 13 13 14 15 16 16 17 19 20 22 24 25 28 30 30 30 30 31 30 28 26 26 27 28 28 28 29 30 31 31 28
22 22 22 22 21 20 18 16 16 17 17 17 16 15 13 12 11 11 10 8 6 7 7 5 4 3 3 4 5 5 6 7 8 7 8 9 11 10 10 10 9 9 9 8 8 8 8 8 8 9 12 12 11 12 13 13 13 13 14 15 16 17 19 21 22 24 26 27 29 31 32 30 28 28 27 24 22 23 25 26 26 26 26 26 26 24 23
21 21 21 21 21 20 18 17 16 16 16 16 15 13 12 11 10 10 8 7 6 7 6 5 4 3 3 4 5 6 7 7 7 7 6 8 9 8 8 9 9 9 9 8 7 7 8 8 8 8 10 10 11 11 12 11 12 14 15 16 17 20 22 24 25 27 28 26 26 28 29 27 24 22 21 21 21 23 24 25 24 21 18 17 17 17 17
21 21 21 21 21 19 18 17 16 15 16 16 14 12 11 10 10 9 7 6 6 6 5 5 5 4 5 5 5 6 7 7 7 7 7 8 8 7 7 7 7 7 7 7 6 7 7 8 7 7 8 9 9 10 10 10 11 13 15 18 21 24 26 28 28 28 26 24 23 22 21 20 19 19 20 21 22 22 22 21 19 16 13 12 13 14 15
20 21 21 21 20 18 17 16 16 16 16 15 13 12 11 10 9 8 6 6 6 5 5 5 5 5 5 5 4 7 8 8 8 9 9 9 9 7 6 5 4 4 6 6 5 6 6 7 7 6 7 9 9 8 7 9 12 15 18 21 24 27 29 30 29 25 23 21 20 17 14 15 16 18 19 20 21 21 19 16 14 13 11 10 11 12 13
20 21 21 20 19 18 17 16 15 16 15 14 12 12 11 9 9 8 6 7 6 5 4 5 4 4 6 5 6 9 9 8 9 10 9 9 10 9 8 6 4 5 7 6 4 4 5 6 6 6 7 9 8 7 8 12 16 19 22 24 26 28 28 28 25 22 20 17 15 13 13 13 15 18 19 20 20 19 15 12 11 11 11 10 10 11 12
19 20 20 20 19 18 17 16 15 15 14 12 12 11 10 9 8 7 7 7 6 5 5 5 3 4 7 7 8 10 9 7 9 10 9 10 10 9 8 7 5 6 7 5 3 4 5 6 6 6 7 9 8 8 10 15 18 21 24 26 27 26 25 23 20 19 17 15 14 14 14 14 16 19 19 18 16 13 10 9 9 10 9 9 9 10 11
18 19 20 20 19 18 17 15 14 14 13 11 11 10 9 8 8 7 7 7 6 5 6 5 4 7 8 8 8 10 10 8 8 8 9 10 10 8 7 7 7 8 7 4 3 4 5 6 7 7 8 8 8 9 13 17 21 23 25 27 25 22 21 20 19 18 17 17 17 17 15 15 16 18 15 12 10 7 6 6 6 5 6 6 5 7 10
17 18 20 20 20 18 16 15 14 13 12 10 10 9 8 8 7 7 7 8 6 5 5 6 7 9 9 8 8 10 11 10 9 8 10 11 9 8 8 7 8 9 7 4 4 5 7 7 7 7 7 7 7 11 17 20 22 24 26 25 21 19 21 22 20 17 17 18 18 16 14 15 16 13 9 6 4 2 3 3 2 2 3 3 3 6 10
17 17 18 19 19 18 16 14 13 12 11 10 9 8 8 7 7 7 8 8 7 6 6 7 8 10 11 10 9 10 11 11 10 11 11 9 9 10 8 6 8 9 6 4 5 7 8 7 7 8 8 7 9 14 20 22 22 25 25 20 15 17 22 22 18 16 17 18 17 14 13 13 10 6 5 4 4 6 6 4 2 2 2 3 5 6 6
17 17 17 18 19 18 16 14 12 11 11 10 8 7 7 7 8 9 7 6 5 7 9 10 9 9 10 11 12 11 11 11 13 15 11 7 9 11 7 6 9 9 4 4 7 9 7 6 8 9 9 9 13 18 21 22 23 24 21 15 14 16 18 16 16 17 19 18 15 11 8 5 4 4 4 3 4 4 3 1 1 2 3 4 3 1 5
18 18 18 18 18 17 16 14 12 11 10 9 7 7 8 8 9 9 8 6 7 9 11 12 10 10 12 13 12 11 11 12 14 13 9 8 11 11 7 6 8 6 4 6 10 9 6 6 8 9 10 12 17 20 21 22 23 22 16 14 14 14 13 14 16 16 14 11 8 4 4 5 5 5 5 4 4 4 3 3 3 3 2 3 5 7 10
18 18 18 18 17 17 15 13 11 10 9 8 8 8 9 9 10 10 9 9 10 10 10 12 14 14 13 12 11 11 12 12 11 9 7 8 10 10 7 6 6 6 7 10 10 7 7 8 9 10 12 16 19 20 20 22 23 18 14 13 13 11 12 15 13 8 7 8 6 6 6 5 5 7 9 9 9 9 9 9 8 7 7 7 8 8 9
18 18 18 18 17 16 14 11 10 10 9 8 9 10 10 10 11 11 9 10 11 11 11 14 16 16 14 13 13 12 10 10 11 10 7 7 8 7 6 6 7 8 9 10 8 6 7 8 8 9 12 18 20 20 21 23 21 15 12 12 11 11 12 11 6 5 8 8 8 7 6 6 8 10 12 12 12 12 12 11 11 10 11 11 11 13 15
18 17 18 18 17 15 12 10 10 10 10 10 11 12 11 10 9 9 10 12 14 15 15 16 17 16 14 12 11 10 8 9 10 9 6 6 8 7 6 6 8 10 10 8 7 6 7 7 8 9 14 18 19 19 22 24 18 11 10 11 10 10 10 7 5 6 7 7 8 9 9 10 12 14 14 15 15 15 14 15 16 17 17 17 18 20 22
17 17 17 17 17 15 13 11 10 10 11 13 14 14 13 12 11 12 15 17 17 17 17 17 17 15 12 9 9 10 11 10 9 7 7 8 8 7 8 9 9 8 7 7 7 7 7 8 9 11 15 18 18 18 22 22 14 8 9 10 10 9 8 6 6 6 8 11 12 13 14 16 17 18 18 19 19 19 20 21 21 21 21 22 23 24 25
17 17 17 16 16 15 14 13 12 12 14 15 16 16 16 16 16 16 17 17 16 16 17 17 16 14 11 9 9 9 10 10 10 10 11 10 7 6 9 10 8 6 7 8 8 8 8 9 10 12 15 18 17 18 21 19 11 6 8 9 8 8 7 5 7 10 14 18 19 20 21 21 21 21 21 21 21 22 22 23 23 23 23 24 25 25 26
18 17 17 15 15 16 16 16 17 17 16 16 16 17 18 18 17 17 18 17 16 16 16 16 14 12 10 11 11 9 9 12 13 12 10 9 7 7 8 8 7 8 9 9 8 8 9 10 11 13 16 17 16 18 20 16 8 5 7 7 6 6 5 7 11 16 21 22 22 22 22 21 21 21 21 21 22 22 22 23 23 23 23 23 24 24 25
20 19 17 16 16 17 17 18 19 19 17 16 16 18 19 19 18 18 18 18 17 16 15 15 15 12 10 11 12 11 10 11 11 9 9 9 9 8 8 9 10 10 9 8 8 9 10 10 11 14 15 15 15 17 19 14 7 4 5 5 4 3 4 9 15 19 22 22 20 20 20 20 20 20 19 19 20 20 21 21 22 22 22 22 22 22 22
21 20 18 16 16 17 18 19 19 18 17 17 16 17 18 19 18 18 19 18 17 16 16 15 15 13 11 12 13 12 11 10 10 9 9 9 8 7 10 12 12 10 8 7 8 9 10 10 11 13 14 14 14 16 17 12 6 3 3 4 3 2 5 11 15 17 20 20 18 16 15 16 16 17 17 17 18 18 18 19 20 20 21 21 20 20 20
23 21 19 17 17 18 19 20 19 18 18 18 17 17 18 18 18 19 20 19 18 17 15 13 11 11 12 13 13 11 11 12 12 11 11 10 9 9 12 12 11 9 9 8 9 10 9 9 11 13 14 13 13 15 15 11 6 4 3 2 2 1 4 11 13 14 16 17 16 14 12 12 13 14 15 16 16 16 16 17 18 18 19 19 19 19 18
23 21 19 19 18 19 20 20 19 18 19 19 19 19 19 18 19 20 20 19 17 17 15 13 13 14 14 14 13 13 13 14 16 17 16 14 12 11 12 11 10 9 9 9 9 9 9 9 11 13 13 12 13 14 14 9 5 4 4 3 2 2 3 9 13 12 11 12 12 11 10 10 10 11 12 13 14 14 14 14 15 16 16 16 16 16 15
Wind_Direction
335 331 327 323 318 315 310 304 298 293 288 283 277 273 270 266 261 260 258 253 255 252 244 251 256 248 245 249 251 250 247 241 239 241 239 238 243 243 240 242 241 240 244 246 247 250 251 248 247 248 244 248 257 261 259 258 261 265 264 261 266 270 259 255 257 255 255 258 255 253 256 256 253 253 250 249 255 257 258 269 280 273 262 262 263 261 257
342 339 336 333 331 328 324 319 312 304 296 289 280 271 267 263 260 261 258 252 250 244 239 245 249 248 250 254 255 251 247 243 239 239 239 238 241 243 242 243 243 244 248 248 243 241 244 246 249 249 244 249 257 257 252 252 253 249 245 250 261 264 257 255 259 258 250 246 248 250 252 252 250 249 247 249 257 262 262 268 272 264 260 262 262 263 261
345 342 339 337 336 335 333 330 326 320 314 306 296 283 271 264 261 259 255 250 244 239 239 239 240 249 254 253 251 251 250 247 242 242 244 244 244 247 247 248 247 247 249 249 244 244 248 250 252 250 243 247 255 253 249 249 247 249 253 256 259 261 255 248 252 259 254 244 246 256 254 246 240 245 252 257 258 254 258 264 259 253 258 257 255 262 268
349 346 343 340 338 337 336 336 332 329 326 320 314 303 286 272 263 258 254 249 242 239 241 241 242 248 250 249 250 250 249 252 252 251 252 252 252 252 253 255 254 252 250 249 245 247 250 249 248 245 235 241 251 250 247 248 248 251 257 256 255 254 251 249 250 254 260 265 271 281 278 263 256 261 259 254 254 252 255 259 256 260 265 257 253 261 262
354 352 350 346 343 341 339 340 338 334 331 328 325 318 306 286 264 256 254 249 242 238 239 239 240 243 243 244 250 250 248 253 258 256 254 255 257 257 257 256 252 248 246 242 239 242 245 243 239 234 228 237 250 252 246 246 249 252 254 254 253 252 253 253 250 252 259 265 271 276 273 266 266 267 260 253 255 255 252 249 252 265 269 259 260 265 258
356 356 354 352 349 346 344 343 343 341 337 333 329 325 319 305 279 263 251 242 238 239 241 239 240 243 244 244 248 251 250 247 248 252 254 255 255 254 255 254 250 246 243 240 239 238 236 235 235 236 236 237 244 248 246 246 250 252 254 254 248 248 257 258 253 257 261 262 265 268 265 262 262 260 258 256 255 253 251 251 253 257 258 260 269 272 258
358 357 356 355 352 350 348 346 346 347 345 341 338 335 330 320 300 283 264 247 244 247 249 248 248 250 251 252 252 252 253 251 248 250 251 251 252 248 245 252 254 251 246 241 235 232 231 229 231 234 235 234 233 235 246 255 254 245 245 250 246 248 261 261 257 264 267 264 264 262 259 261 260 259 259 258 257 256 254 255 255 254 256 260 267 266 257
359 358 358 356 354 352 351 350 349 350 351 352 353 348 342 339 328 311 294 273 263 260 258 257 257 257 255 255 255 253 254 256 254 251 246 243 246 243 235 243 249 248 245 240 234 237 237 233 235 235 233 235 235 230 234 245 243 236 240 251 256 261 267 265 263 270 272 267 262 258 258 262 261 257 256 255 254 253 253 255 256 254 257 260 262 263 263
359 360 359 358 357 355 354 354 353 352 354 357 359 358 354 354 352 343 332 313 300 291 283 278 272 266 258 251 250 252 253 254 255 255 250 242 240 239 235 237 241 243 241 238 237 240 239 234 237 237 229 227 230 229 231 234 237 246 253 258 264 268 270 271 270 270 272 268 259 257 261 264 263 258 253 251 251 253 254 255 255 257 260 263 263 266 269
359 -0 1 0 0 359 358 358 357 357 358 358 358 1 3 4 1 355 353 342 328 321 311 305 291 270 268 262 254 251 251 253 254 255 255 247 237 235 235 233 233 237 239 238 236 239 240 238 238 237 232 233 236 238 242 243 244 251 257 261 267 265 263 269 269 268 272 268 253 258 268 269 264 255 251 253 255 256 257 257 257 260 262 261 262 264 265
358 360 1 2 3 3 2 2 1 1 2 -0 2 5 6 7 3 357 359 354 340 333 324 312 292 272 276 276 266 259 253 252 251 245 249 253 245 238 237 232 225 230 238 239 238 241 244 244 245 244 242 244 247 250 253 255 256 259 260 261 266 263 258 262 263 263 269 265 247 262 270 265 259 251 253 260 256 251 253 255 256 256 254 256 258 259 258
357 359 1 3 4 5 5 5 5 4 5 5 6 7 5 4 3 1 3 357 341 336 329 313 300 289 285 279 272 270 264 258 255 248 247 255 255 251 248 242 236 238 244 245 245 247 250 253 256 257 256 258 260 261 263 264 263 263 262 257 255 257 256 257 254 256 263 263 253 261 262 248 246 257 263 257 245 243 250 255 256 254 255 260 263 263 263
355 358 0 2 6 7 8 9 9 8 9 10 9 6 4 4 5 4 4 358 343 337 333 322 313 304 294 284 278 276 273 269 267 261 255 256 257 255 253 250 248 250 254 256 257 259 263 266 267 267 267 267 267 264 263 263 259 258 258 253 246 244 250 255 252 251 255 254 244 246 257 257 256 266 269 264 259 260 261 262 264 262 261 264 268 270 271
353 357 359 1 5 8 10 12 12 11 10 10 11 11 9 7 5 3 2 359 349 341 337 330 323 315 304 295 288 282 282 281 276 270 265 262 260 260 258 255 253 254 256 258 262 265 268 269 269 268 266 261 260 262 261 256 250 246 247 249 245 242 245 251 251 248 249 254 255 256 266 279 275 265 265 267 264 258 255 256 260 263 262 262 267 274 276
352 355 358 0 3 7 10 12 14 13 10 8 10 11 10 8 6 3 1 357 352 346 340 333 326 320 314 308 301 294 290 285 278 275 277 274 269 267 265 263 262 263 262 261 262 263 260 257 256 259 258 252 252 259 257 249 251 248 242 240 239 235 233 237 246 248 248 256 266 264 264 277 276 247 245 256 250 245 253 255 253 258 264 263 261 266 275
351 354 358 360 1 3 7 9 11 12 11 9 7 6 5 4 3 3 1 358 354 345 336 333 330 326 322 316 310 302 293 283 277 274 277 278 275 274 275 275 272 270 268 265 261 255 247 245 245 251 257 254 249 258 258 247 252 257 244 234 230 230 229 232 243 249 248 252 261 263 262 271 271 254 250 253 248 248 259 258 246 239 250 261 258 258 271
349 353 357 360 0 0 2 5 6 7 8 8 6 3 0 359 359 360 358 357 355 345 336 335 334 330 328 321 310 303 292 282 276 257 247 263 273 275 279 282 282 279 274 263 254 249 243 242 247 253 259 252 239 250 263 249 239 245 242 228 225 229 230 232 239 246 249 250 255 262 267 269 267 263 262 260 256 250 249 254 243 226 225 241 251 254 269
348 352 357 360 359 359 360 2 2 3 3 4 3 1 358 356 356 356 355 355 353 346 338 335 333 330 326 317 308 302 293 288 282 271 269 276 277 275 277 281 283 280 272 250 236 241 243 244 250 254 257 252 237 244 261 252 235 238 237 228 230 233 231 235 242 248 251 251 255 263 267 264 263 265 266 265 261 252 247 252 249 231 226 230 234 244 263
348 351 357 359 359 358 358 359 360 360 360 1 1 360 357 355 354 353 353 353 351 346 341 336 332 329 320 312 307 301 293 288 279 279 313 308 285 283 293 297 291 278 264 239 226 237 244 245 248 252 256 256 247 241 252 250 237 241 245 245 247 245 240 241 244 249 254 254 257 263 266 260 261 264 263 260 255 251 253 253 246 241 237 235 235 239 252
351 354 357 359 358 356 356 356 358 358 358 359 359 358 356 355 356 356 355 354 352 349 345 338 330 324 317 314 312 303 295 288 273 265 65 292 287 323 9 357 6 43 72 151 198 229 241 243 251 259 255 255 257 256 257 255 249 248 249 251 253 250 250 253 251 251 255 253 254 262 262 249 251 260 260 255 248 248 255 256 252 251 249 248 249 249 252
355 355 356 356 355 354 354 355 356 356 357 358 358 357 357 356 357 359 359 359 358 355 349 342 333 326 321 320 318 310 303 289 257 230 200 232 268 79 102 249 358 52 97 109 93 243 214 229 266 275 262 260 270 272 268 267 265 257 250 251 257 256 253 260 262 257 252 249 251 262 261 250 256 265 262 263 258 255 261 269 270 266 264 266 269 269 269
354 352 352 353 352 352 352 353 353 354 356 357 357 358 358 357 357 359 360 1 2 359 356 354 350 344 340 336 330 322 309 282 234 192 178 182 164 117 149 208 341 349 107 111 46 342 285 271 293 285 272 268 267 267 270 268 265 266 259 250 257 260 253 253 258 260 261 261 263 266 268 273 282 277 266 265 266 267 273 280 280 277 276 278 280 281 281
352 351 349 349 348 349 350 350 350 352 355 357 357 358 357 356 357 358 359 1 1 359 1 5 2 354 348 339 329 319 297 277 233 191 185 165 144 335 328 258 261 303 324 2 145 29 326 302 297 287 278 271 266 268 271 264 258 265 269 257 261 268 261 254 260 270 277 275 270 265 267 276 284 282 275 272 271 273 276 277 276 276 276 276 278 278 279
352 350 348 346 345 346 347 348 348 350 354 356 356 356 356 356 356 357 357 359 359 358 359 0 353 345 340 334 328 327 319 295 255 220 227 210 177 177 282 262 243 268 303 282 265 271 290 291 295 292 277 267 266 270 270 264 259 264 271 273 273 272 266 263 269 275 275 275 273 273 279 285 288 287 283 277 274 275 275 273 273 273 272 273 274 273 274
350 348 346 345 345 345 347 348 348 350 353 355 354 354 355 355 355 356 357 357 358 359 358 354 349 345 345 346 343 348 357 353 339 327 260 243 205 202 237 256 252 245 252 264 274 285 290 288 288 286 277 270 269 272 272 271 270 269 276 283 282 274 274 278 279 273 270 273 278 282 285 287 288 287 285 280 276 276 274 273 273 273 273 273 274 273 273
348 348 346 346 347 347 347 347 349 351 352 353 353 353 353 354 354 354 355 357 359 0 357 353 353 355 357 2 10 19 28 37 49 68 72 68 82 146 222 251 262 261 257 265 276 282 280 278 273 271 273 273 275 278 273 268 270 274 279 282 277 272 276 281 281 278 278 278 283 290 291 289 287 285 283 281 280 279 277 275 274 275 275 275 275 275 275
350 351 351 349 349 349 348 349 352 354 353 352 352 351 351 352 353 352 353 356 359 3 2 0 1 3 3 10 24 35 43 60 76 84 82 81 84 80 67 70 350 295 292 289 293 296 290 277 271 268 266 272 282 287 281 275 279 283 285 285 281 277 280 286 288 287 284 282 286 292 293 291 289 288 286 284 283 282 281 279 278 278 279 279 278 277 275
353 353 353 351 350 350 350 351 354 356 353 351 350 350 350 351 352 351 352 355 358 1 9 13 10 7 9 17 26 34 43 53 62 67 63 60 69 70 52 32 345 316 311 306 304 302 288 274 272 277 282 288 295 295 291 289 288 285 282 282 282 283 287 289 288 285 283 286 288 289 288 288 288 289 289 287 286 285 284 285 285 284 283 281 280 278 277
353 352 350 349 348 349 350 351 355 356 353 350 350 350 350 351 352 352 353 357 359 1 13 27 28 22 24 28 29 31 38 38 33 25 14 9 11 9 357 344 330 319 313 308 304 298 289 282 283 288 292 299 302 298 294 290 286 285 288 289 289 290 291 289 288 287 287 289 290 289 288 288 289 290 290 288 288 287 287 287 287 286 284 282 279 277 276
350 350 347 346 347 347 348 351 354 354 352 351 352 353 351 351 352 355 357 0 2 7 23 44 55 45 35 33 29 25 24 19 9 1 351 345 342 337 330 326 322 316 312 309 305 301 297 294 292 291 291 293 294 292 291 292 292 294 297 295 293 294 295 294 295 295 294 294 294 292 290 290 291 291 290 289 289 289 287 286 286 285 285 284 281 278 275
349 349 347 346 346 346 348 352 354 353 351 352 355 355 353 350 351 355 1 4 9 22 40 57 65 52 38 30 22 19 14 1 344 336 332 330 329 324 319 317 315 312 309 304 299 297 294 288 285 288 291 293 293 292 293 296 296 294 295 295 295 297 298 299 298 296 296 298 296 292 289 291 291 290 290 290 290 288 287 287 288 288 287 285 282 278 274
350 350 348 348 348 348 350 353 353 352 351 353 355 356 355 354 355 358 3 9 20 40 52 59 65 57 28 8 2 1 356 342 333 332 331 327 324 321 319 318 314 310 306 299 293 291 291 289 287 286 289 295 299 297 294 292 288 289 295 299 301 303 303 302 299 298 299 300 297 294 294 296 295 294 293 292 291 289 289 291 292 291 286 283 282 280 274
349 351 352 351 349 348 350 352 352 352 352 354 356 359 0 2 3 6 11 19 36 51 57 62 73 61 11 356 351 348 348 345 342 344 340 326 321 323 322 318 314 311 307 300 295 292 292 296 298 291 289 295 300 297 295 293 293 298 303 305 305 306 304 301 300 301 302 299 295 295 298 300 299 295 294 294 295 294 294 294 296 295 289 284 285 283 276
348 351 354 353 350 348 348 350 351 352 353 356 359 1 4 6 6 12 22 30 39 50 51 51 61 47 14 9 359 343 345 352 353 351 343 331 325 323 320 317 316 314 307 298 297 299 294 295 300 295 290 298 303 300 300 303 306 308 308 306 306 304 302 302 304 304 302 299 295 294 295 295 296 297 298 299 301 300 299 299 301 302 299 295 292 287 281
346 350 352 352 350 347 346 349 352 352 354 357 359 360 4 6 8 17 29 29 34 50 47 36 46 41 20 16 358 340 343 351 351 347 344 339 334 328 328 334 325 303 299 298 298 299 292 292 298 292 289 300 306 301 302 311 314 313 311 308 308 307 307 309 310 308 304 302 300 297 292 292 297 303 305 305 304 303 302 303 307 308 307 303 296 292 289
345 347 348 349 350 349 347 349 352 351 352 355 356 357 2 4 6 15 21 17 24 40 21 6 21 25 12 359 341 340 349 356 353 349 349 349 345 340 345 353 332 299 307 313 306 297 292 295 303 298 293 300 302 296 305 316 318 315 314 313 312 313 314 314 313 311 307 303 300 298 297 299 305 309 309 306 302 300 300 304 306 305 303 301 298 298 296
345 346 346 347 350 350 348 347 348 348 349 350 351 353 358 1 3 7 10 9 12 9 1 4 359 342 347 351 346 347 354 357 351 350 352 351 346 343 349 354 339 324 329 324 293 289 302 312 318 306 289 292 296 296 307 317 319 318 318 317 317 319 321 320 317 314 310 307 307 307 305 305 312 315 313 307 301 297 298 303 302 300 302 305 304 302 296
344 345 346 348 350 349 347 344 344 344 345 345 347 350 354 356 357 355 354 357 355 341 343 351 331 317 329 343 345 343 345 348 349 348 345 345 346 349 351 346 339 341 344 323 283 304 324 324 319 308 293 294 299 300 307 316 320 321 320 319 320 327 331 328 321 316 313 313 316 316 314 315 319 319 316 311 307 304 305 309 310 318 328 329 320 310 302
345 345 345 344 345 347 346 342 340 341 341 341 344 347 347 348 348 343 339 343 342 329 326 332 323 315 320 330 333 333 337 344 348 344 338 338 343 348 345 336 334 341 340 312 296 328 335 321 307 305 305 305 302 303 310 316 320 322 321 321 325 331 332 329 324 319 315 314 315 318 321 320 319 321 325 328 338 26 44 30 27 15 352 339 322 316 313
345 344 342 340 342 345 345 341 338 338 338 337 338 340 342 341 336 332 329 329 323 311 308 316 319 316 317 321 323 326 331 337 340 341 339 335 334 339 337 326 327 335 330 294 304 330 332 316 301 302 308 307 306 311 315 319 323 324 324 325 323 320 321 327 330 325 319 317 319 322 322 318 321 348 36 54 77 90 80 57 47 41 9 345 321 314 321
343 341 341 341 341 343 342 341 340 337 334 334 332 331 333 332 327 327 328 321 304 298 305 313 317 314 314 318 320 322 325 329 334 339 341 331 329 337 334 317 324 330 312 287 317 327 320 304 301 303 305 310 317 321 321 322 326 328 328 329 327 323 325 335 336 327 324 326 328 330 333 341 15 65 92 109 112 108 98 61 29 14 356 341 330 36 89
339 340 340 340 340 340 340 340 339 336 333 331 326 323 325 325 324 324 322 308 299 302 308 313 314 311 311 314 317 318 318 322 331 338 339 325 327 333 326 312 324 326 292 301 321 322 305 294 300 302 305 317 326 328 325 325 330 332 333 336 340 341 345 344 334 328 334 345 351 9 62 86 90 97 108 112 108 108 105 89 77 66 59 81 104 104 97
333 335 337 337 339 339 337 335 335 335 332 325 317 315 315 317 320 321 316 309 310 313 311 310 313 315 315 314 316 316 315 318 326 332 327 319 325 329 322 312 311 299 297 310 317 306 291 294 295 295 307 324 333 332 328 329 334 337 338 343 352 358 354 343 337 349 29 49 63 82 94 104 107 100 93 87 85 86 87 86 90 100 109 112 108 100 93
328 330 333 334 334 335 333 330 330 329 325 317 310 309 309 311 314 315 309 303 307 311 308 307 311 313 308 304 307 309 309 314 319 320 316 318 321 317 306 301 299 297 306 313 308 292 294 300 297 298 317 333 339 335 330 333 339 340 341 351 5 9 359 355 10 62 68 68 76 79 83 98 103 98 93 88 86 87 90 95 103 109 111 110 105 98 92
322 326 328 329 329 329 328 324 323 322 319 315 312 310 307 306 306 304 301 302 306 307 306 307 311 312 305 299 300 299 294 301 310 309 304 310 311 297 281 289 301 305 308 307 299 295 301 304 304 312 327 337 341 337 333 336 341 344 347 0 15 14 12 29 71 72 59 69 76 73 81 96 98 95 96 95 95 98 100 101 102 101 99 98 97 93 89
313 318 321 323 323 323 320 316 315 315 314 314 313 308 303 302 301 300 300 303 307 309 309 310 313 313 306 294 289 288 288 292 297 295 296 302 301 289 290 299 302 299 295 294 296 300 303 305 311 322 332 339 342 338 336 338 343 347 354 7 21 22 29 65 88 69 70 85 85 83 91 98 97 98 101 101 101 102 100 96 94 92 90 89 89 86 83
305 310 315 317 316 315 314 310 308 309 309 310 311 308 304 305 306 304 302 303 306 308 309 312 315 313 305 291 284 282 286 291 290 289 294 297 286 279 293 299 291 275 277 286 293 300 305 309 315 325 334 339 341 338 337 340 345 353 358 10 24 29 43 94 112 97 94 97 95 94 98 99 98 100 101 99 97 97 94 91 90 89 86 85 83 80 78
299 304 309 310 308 307 307 307 308 309 308 308 309 308 307 308 308 305 303 306 309 309 309 313 315 311 301 293 287 278 276 285 288 287 289 290 282 277 284 284 275 275 281 284 289 300 306 306 309 319 330 337 339 338 338 339 343 353 2 13 31 39 61 117 126 115 108 105 101 99 100 97 96 97 97 95 95 96 93 92 92 90 86 85 82 78 77
296 299 301 302 302 301 302 305 308 308 305 306 308 308 307 309 309 305 304 308 311 310 308 310 310 304 293 288 288 282 275 279 282 281 279 279 273 266 267 271 276 282 285 283 288 297 302 303 307 317 329 336 336 335 337 336 333 347 10 22 35 50 103 136 135 123 115 110 105 103 103 101 99 100 100 98 99 98 96 95 94 89 86 85 83 80 80
293 295 297 298 298 298 298 302 306 306 304 306 307 305 305 307 307 303 304 308 311 308 307 308 308 303 292 286 285 282 275 271 269 267 266 263 253 250 264 274 278 279 281 287 295 300 302 305 310 317 328 334 333 334 336 334 318 320 13 27 22 43 134 146 140 128 123 120 114 111 113 112 108 107 106 103 101 101 100 98 95 90 87 85 83 81 81
291 293 294 295 294 294 295 298 302 304 304 304 301 299 301 304 302 298 301 306 307 306 305 302 296 290 286 283 282 280 276 274 271 267 263 258 248 247 258 270 276 278 278 285 295 300 305 309 310 314 322 329 330 332 336 333 310 297 337 3 344 317 161 158 149 133 125 125 123 121 126 127 118 112 111 110 106 104 101 98 94 90 87 84 81 80 79
290 292 293 292 291 290 292 295 299 302 303 303 302 300 301 301 297 296 300 304 303 300 296 289 283 282 281 278 277 278 276 273 272 272 272 270 268 265 263 265 271 277 280 286 294 300 305 308 308 310 318 325 327 330 334 331 303 290 313 315 284 275 203 177 168 151 133 131 135 140 146 145 134 122 117 115 112 108 104 99 94 91 87 83 80 78 77
Height
3081 3079 3077 3075 3074 3073 3071 3070 3069 3069 3069 3069 3069 3068 3068 3068 3068 3068 3069 3069 3070 3071 3071 3071 3071 3071 3071 3071 3071 3072 3072 3073 3073 3074 3074 3075 3075 3075 3076 3077 3077 3078 3078 3079 3079 3080 3080 3080 3080 3080 3080 3080 3080 3080 3081 3081 3082 3083 3084 3083 3082 3082 3083 3082 3080 3079 3079 3078 3077 3079 3079 3079 3080 3079 3079 3080 3079 3080 3079 3077 3078 3078 3076 3077 3077 3074 3073
3080 3078 3076 3074 3072 3071 3069 3068 3066 3066 3065 3065 3066 3066 3065 3065 3065 3065 3066 3067 3067 3068 3069 3069 3069 3068 3068 3069 3069 3070 3070 3070 3071 3072 3072 3073 3073 3073 3074 3074 3074 3075 3075 3076 3077 3077 3078 3078 3077 3078 3078 3077 3077 3078 3079 3079 3080 3081 3081 3081 3080 3081 3081 3081 3079 3077 3076 3076 3075 3076 3076 3076 3078 3078 3077 3077 3078 3078 3077 3077 3079 3076 3074 3075 3074 3071 3071
3079 3077 3075 3073 3071 3070 3068 3067 3065 3064 3063 3062 3062 3062 3062 3063 3063 3063 3063 3064 3065 3065 3065 3066 3066 3065 3066 3067 3067 3067 3068 3068 3068 3069 3069 3070 3071 3071 3071 3071 3072 3073 3073 3074 3074 3074 3075 3076 3075 3075 3076 3075 3075 3076 3076 3077 3078 3078 3078 3078 3079 3079 3080 3079 3078 3075 3074 3073 3072 3072 3073 3074 3075 3075 3075 3075 3076 3077 3076 3076 3076 3073 3071 3073 3072 3070 3071
3078 3076 3074 3072 3070 3068 3067 3065 3064 3062 3061 3060 3060 3060 3060 3060 3060 3060 3060 3061 3061 3062 3062 3063 3063 3063 3064 3064 3064 3065 3066 3065 3066 3067 3067 3067 3068 3068 3069 3069 3070 3070 3071 3071 3072 3072 3072 3073 3073 3073 3074 3073 3073 3074 3074 3075 3075 3075 3076 3076 3077 3077 3077 3077 3076 3074 3072 3072 3072 3072 3072 3073 3074 3074 3074 3074 3074 3074 3075 3075 3073 3071 3070 3070 3070 3070 3071
3077 3075 3073 3071 3069 3067 3066 3064 3063 3061 3060 3059 3058 3058 3058 3058 3058 3058 3058 3059 3059 3059 3059 3060 3060 3061 3062 3062 3062 3063 3063 3063 3064 3064 3064 3064 3065 3066 3066 3066 3067 3068 3068 3069 3070 3069 3070 3070 3071 3071 3072 3071 3071 3071 3072 3072 3072 3073 3073 3074 3075 3075 3075 3074 3074 3073 3072 3072 3072 3072 3071 3071 3072 3072 3072 3072 3072 3072 3073 3072 3071 3072 3070 3067 3067 3070 3070
3077 3075 3073 3070 3068 3066 3065 3063 3062 3061 3059 3058 3057 3056 3056 3056 3056 3056 3056 3057 3057 3057 3057 3058 3058 3059 3059 3060 3060 3060 3061 3061 3062 3062 3062 3062 3063 3064 3064 3064 3065 3065 3066 3067 3067 3067 3068 3068 3068 3069 3069 3069 3069 3070 3070 3070 3070 3071 3071 3071 3072 3073 3072 3071 3071 3071 3070 3071 3070 3070 3070 3070 3070 3070 3070 3070 3070 3070 3070 3069 3070 3071 3069 3065 3067 3069 3068
3077 3074 3072 3070 3068 3066 3064 3062 3061 3060 3058 3057 3056 3055 3055 3055 3054 3054 3054 3055 3055 3055 3055 3056 3056 3057 3057 3057 3058 3058 3059 3059 3059 3060 3060 3060 3061 3062 3062 3062 3062 3063 3063 3065 3065 3065 3066 3066 3066 3066 3067 3067 3068 3069 3069 3068 3069 3069 3070 3069 3069 3070 3070 3069 3069 3069 3068 3068 3068 3068 3068 3067 3067 3067 3066 3067 3067 3067 3067 3066 3067 3068 3066 3064 3066 3065 3064
3076 3074 3072 3070 3067 3065 3063 3062 3060 3059 3057 3056 3055 3055 3054 3054 3053 3053 3053 3053 3053 3053 3053 3054 3055 3055 3055 3055 3056 3056 3056 3056 3057 3057 3058 3058 3058 3059 3060 3060 3060 3061 3061 3062 3063 3062 3063 3063 3063 3064 3065 3065 3066 3067 3067 3067 3067 3067 3068 3067 3067 3068 3067 3066 3067 3066 3064 3065 3065 3065 3065 3064 3063 3063 3063 3064 3064 3063 3063 3063 3064 3063 3062 3062 3063 3061 3060
3076 3074 3072 3069 3067 3065 3063 3061 3060 3058 3057 3056 3055 3054 3054 3053 3053 3052 3052 3052 3052 3052 3052 3053 3053 3053 3053 3053 3054 3054 3054 3054 3054 3055 3055 3056 3056 3057 3057 3058 3058 3059 3059 3059 3060 3060 3060 3061 3061 3062 3063 3063 3064 3064 3064 3065 3066 3066 3066 3065 3065 3066 3065 3065 3065 3064 3061 3061 3062 3062 3062 3061 3059 3058 3058 3059 3059 3058 3059 3059 3059 3059 3058 3059 3059 3057 3057
3076 3074 3071 3069 3067 3064 3062 3061 3059 3058 3057 3056 3055 3054 3053 3053 3052 3052 3052 3052 3051 3052 3051 3052 3052 3052 3052 3052 3052 3052 3052 3052 3053 3053 3053 3054 3054 3055 3055 3056 3057 3058 3057 3057 3057 3058 3058 3059 3059 3060 3060 3060 3061 3061 3061 3062 3063 3064 3064 3063 3063 3064 3064 3063 3063 3061 3058 3059 3060 3059 3059 3057 3054 3052 3052 3054 3055 3055 3055 3056 3056 3056 3056 3056 3055 3055 3055
3075 3073 3071 3069 3067 3064 3062 3061 3059 3058 3057 3055 3054 3054 3053 3053 3052 3052 3051 3051 3051 3051 3051 3051 3051 3051 3050 3050 3051 3051 3051 3051 3051 3052 3052 3052 3052 3053 3054 3054 3055 3056 3055 3055 3055 3056 3056 3056 3057 3057 3058 3058 3058 3059 3059 3059 3060 3060 3061 3061 3060 3061 3061 3061 3061 3059 3057 3057 3057 3057 3057 3053 3048 3047 3048 3050 3051 3051 3052 3052 3052 3052 3052 3051 3051 3051 3051
3075 3073 3071 3069 3067 3065 3062 3060 3059 3058 3056 3055 3054 3053 3053 3052 3052 3051 3051 3051 3051 3050 3050 3050 3050 3050 3049 3049 3049 3049 3050 3050 3050 3050 3051 3050 3051 3051 3052 3052 3053 3053 3053 3053 3054 3054 3054 3055 3055 3055 3055 3055 3056 3056 3056 3056 3057 3057 3057 3058 3058 3058 3058 3058 3058 3057 3056 3056 3056 3055 3052 3047 3045 3045 3046 3047 3048 3048 3048 3048 3048 3047 3047 3047 3047 3047 3046
3075 3073 3071 3069 3067 3065 3063 3061 3059 3058 3056 3055 3054 3053 3052 3052 3051 3051 3050 3050 3050 3049 3049 3049 3049 3048 3048 3048 3048 3048 3048 3048 3048 3048 3049 3049 3049 3049 3049 3050 3050 3050 3050 3051 3052 3052 3053 3053 3053 3053 3053 3053 3053 3053 3053 3053 3054 3054 3054 3054 3055 3055 3056 3056 3056 3055 3054 3053 3053 3051 3047 3044 3044 3045 3044 3045 3045 3046 3046 3046 3045 3044 3044 3044 3044 3043 3043
3075 3073 3071 3069 3067 3065 3063 3061 3059 3058 3057 3056 3054 3053 3052 3051 3051 3050 3050 3050 3049 3048 3048 3048 3047 3047 3047 3047 3047 3047 3047 3047 3047 3047 3047 3047 3047 3047 3047 3047 3048 3048 3049 3049 3050 3050 3051 3051 3052 3052 3052 3051 3051 3051 3050 3050 3051 3051 3051 3051 3052 3052 3053 3054 3053 3052 3051 3050 3048 3046 3044 3043 3043 3042 3042 3042 3043 3043 3043 3044 3042 3041 3041 3042 3042 3041 3041
3074 3073 3071 3069 3067 3065 3064 3062 3060 3058 3057 3055 3054 3053 3052 3051 3051 3050 3049 3049 3048 3048 3047 3047 3046 3046 3046 3046 3045 3046 3046 3045 3046 3045 3045 3045 3045 3045 3045 3045 3046 3046 3047 3047 3048 3049 3049 3050 3050 3050 3049 3049 3049 3048 3049 3049 3048 3047 3047 3048 3049 3049 3051 3051 3051 3050 3049 3048 3045 3043 3042 3040 3039 3039 3040 3040 3040 3040 3041 3041 3041 3039 3038 3039 3039 3040 3040
3074 3072 3070 3069 3067 3065 3064 3062 3060 3059 3057 3055 3054 3053 3052 3051 3050 3049 3049 3048 3048 3047 3046 3046 3045 3045 3045 3044 3044 3044 3044 3044 3044 3044 3044 3044 3043 3042 3042 3043 3043 3044 3044 3045 3046 3047 3047 3048 3048 3048 3047 3047 3047 3047 3047 3047 3046 3045 3045 3046 3046 3047 3048 3049 3049 3047 3047 3047 3044 3041 3040 3038 3037 3038 3038 3038 3039 3039 3040 3040 3038 3037 3036 3036 3037 3038 3038
3073 3071 3070 3068 3067 3065 3063 3062 3060 3059 3057 3056 3054 3053 3051 3050 3049 3048 3048 3047 3047 3046 3045 3045 3044 3044 3044 3043 3043 3043 3043 3042 3042 3043 3043 3043 3042 3041 3041 3041 3041 3042 3042 3043 3044 3045 3046 3046 3046 3046 3045 3044 3045 3046 3045 3045 3045 3044 3044 3044 3045 3045 3046 3046 3046 3045 3044 3044 3042 3039 3038 3037 3036 3036 3036 3036 3037 3038 3039 3037 3035 3033 3033 3034 3035 3035 3035
3072 3071 3069 3068 3066 3064 3063 3061 3060 3058 3057 3055 3054 3052 3051 3049 3048 3047 3047 3046 3046 3045 3044 3044 3043 3043 3042 3042 3042 3042 3041 3041 3041 3041 3042 3041 3040 3040 3040 3040 3040 3040 3041 3042 3043 3043 3044 3044 3044 3044 3044 3043 3043 3044 3043 3043 3043 3043 3043 3043 3043 3043 3044 3044 3043 3042 3042 3041 3039 3037 3037 3035 3034 3034 3034 3034 3036 3037 3036 3034 3032 3031 3032 3031 3031 3032 3032
3072 3070 3069 3067 3066 3064 3062 3061 3060 3058 3056 3055 3053 3052 3050 3049 3048 3047 3046 3045 3045 3044 3043 3042 3042 3041 3041 3040 3040 3040 3040 3040 3040 3040 3041 3041 3040 3039 3039 3039 3039 3040 3040 3040 3041 3042 3042 3043 3043 3043 3042 3042 3042 3042 3042 3041 3042 3042 3042 3042 3042 3042 3042 3041 3041 3040 3039 3038 3037 3036 3035 3033 3031 3031 3032 3032 3033 3033 3032 3030 3030 3030 3030 3029 3029 3029 3029
3071 3070 3068 3067 3065 3063 3062 3060 3059 3057 3056 3054 3053 3051 3050 3048 3047 3046 3045 3044 3043 3043 3042 3041 3040 3040 3039 3039 3038 3038 3038 3038 3038 3038 3039 3039 3038 3038 3039 3039 3039 3039 3039 3040 3040 3041 3041 3041 3041 3041 3041 3041 3040 3040 3040 3040 3040 3040 3040 3041 3040 3040 3040 3039 3038 3038 3037 3036 3035 3034 3032 3030 3029 3030 3030 3030 3031 3030 3029 3028 3028 3028 3027 3027 3027 3026 3027
3071 3069 3068 3066 3065 3063 3061 3060 3058 3057 3055 3054 3052 3050 3049 3047 3046 3045 3044 3043 3042 3042 3041 3040 3039 3038 3038 3037 3037 3037 3037 3037 3036 3037 3037 3037 3037 3038 3039 3039 3038 3038 3039 3039 3040 3040 3039 3040 3041 3040 3040 3040 3039 3039 3039 3039 3038 3038 3038 3038 3039 3038 3037 3037 3036 3035 3034 3033 3033 3032 3030 3029 3029 3029 3029 3028 3027 3027 3026 3026 3026 3026 3025 3024 3024 3023 3023
3070 3069 3067 3065 3064 3062 3061 3059 3058 3056 3055 3053 3051 3050 3048 3047 3046 3045 3044 3043 3042 3041 3040 3039 3038 3037 3037 3036 3036 3036 3036 3035 3035 3035 3035 3036 3036 3037 3037 3037 3037 3037 3037 3038 3040 3040 3039 3039 3040 3039 3039 3039 3038 3038 3038 3037 3037 3036 3036 3036 3037 3036 3035 3034 3033 3032 3032 3031 3030 3029 3028 3028 3028 3027 3026 3025 3025 3024 3024 3023 3023 3023 3022 3022 3021 3020 3019
3070 3068 3066 3064 3063 3062 3060 3058 3057 3055 3054 3052 3051 3049 3048 3046 3045 3044 3043 3042 3041 3040 3039 3038 3038 3037 3036 3036 3035 3035 3035 3035 3035 3035 3034 3035 3036 3036 3036 3036 3036 3036 3035 3036 3038 3038 3038 3038 3038 3038 3038 3038 3037 3037 3036 3036 3036 3036 3035 3035 3034 3033 3032 3031 3030 3030 3030 3029 3027 3026 3026 3027 3026 3025 3024 3023 3022 3022 3021 3020 3020 3019 3019 3018 3017 3017 3016
3069 3067 3065 3064 3062 3061 3059 3058 3056 3055 3053 3052 3050 3049 3047 3046 3045 3043 3042 3041 3040 3039 3038 3038 3037 3036 3036 3035 3035 3034 3034 3034 3034 3034 3034 3034 3035 3035 3035 3035 3034 3035 3035 3035 3035 3036 3036 3036 3036 3036 3036 3036 3035 3035 3035 3034 3034 3034 3033 3033 3033 3031 3030 3029 3029 3029 3028 3026 3025 3025 3024 3024 3023 3022 3021 3021 3020 3019 3018 3017 3016 3015 3015 3014 3013 3013 3012
3068 3067 3065 3063 3061 3060 3058 3057 3055 3054 3052 3051 3050 3048 3047 3045 3044 3043 3042 3041 3040 3039 3038 3037 3037 3036 3035 3035 3034 3034 3034 3033 3033 3033 3033 3033 3033 3034 3034 3033 3033 3033 3034 3033 3033 3034 3035 3035 3035 3035 3035 3034 3033 3034 3034 3033 3033 3032 3031 3031 3031 3029 3027 3027 3027 3026 3025 3024 3023 3023 3022 3021 3020 3019 3018 3017 3016 3015 3014 3013 3012 3011 3010 3010 3009 3009 3008
3068 3066 3064 3062 3060 3059 3057 3056 3055 3053 3052 3050 3049 3047 3046 3045 3043 3042 3041 3040 3039 3038 3038 3037 3036 3035 3035 3034 3034 3034 3033 3033 3032 3032 3032 3032 3032 3032 3032 3032 3032 3032 3032 3032 3032 3033 3033 3034 3034 3034 3034 3032 3031 3032 3032 3031 3030 3029 3028 3028 3028 3026 3025 3024 3024 3023 3022 3021 3021 3020 3018 3017 3017 3016 3015 3014 3012 3011 3010 3009 3008 3007 3007 3006 3005 3005 3004
3067 3065 3063 3061 3059 3058 3056 3055 3054 3053 3051 3049 3048 3047 3045 3044 3043 3042 3040 3039 3039 3038 3037 3037 3036 3035 3034 3034 3034 3033 3033 3033 3032 3032 3032 3032 3032 3032 3032 3032 3032 3032 3032 3032 3032 3031 3032 3032 3032 3032 3032 3031 3030 3030 3030 3029 3027 3027 3026 3026 3025 3023 3022 3022 3021 3020 3020 3019 3018 3017 3015 3013 3012 3012 3011 3010 3009 3007 3005 3004 3004 3003 3003 3002 3000 3000 2999
3066 3064 3062 3061 3059 3057 3056 3054 3053 3052 3050 3049 3047 3046 3044 3043 3042 3041 3040 3039 3038 3037 3037 3036 3035 3035 3034 3034 3033 3033 3033 3032 3032 3032 3032 3032 3032 3032 3032 3032 3031 3031 3031 3031 3031 3031 3031 3031 3031 3030 3029 3029 3028 3027 3027 3026 3025 3024 3024 3023 3023 3021 3020 3020 3019 3018 3017 3015 3015 3013 3011 3009 3008 3008 3007 3006 3005 3003 3001 3000 2999 2999 2998 2996 2995 2994 2994
3066 3064 3062 3060 3058 3057 3055 3053 3052 3051 3050 3048 3046 3045 3043 3042 3041 3040 3039 3038 3037 3036 3036 3035 3035 3035 3035 3034 3033 3033 3033 3032 3032 3032 3032 3031 3031 3031 3031 3031 3031 3031 3030 3030 3030 3030 3029 3029 3029 3028 3027 3027 3026 3025 3024 3024 3023 3022 3022 3021 3020 3019 3018 3018 3016 3015 3013 3012 3011 3010 3008 3005 3004 3003 3002 3001 3000 2998 2996 2995 2994 2993 2992 2991 2989 2988 2988
3065 3064 3061 3060 3058 3056 3054 3053 3052 3050 3049 3047 3046 3044 3043 3042 3041 3040 3039 3038 3037 3036 3035 3035 3036 3035 3035 3034 3033 3033 3033 3032 3032 3031 3031 3031 3031 3030 3030 3030 3029 3029 3029 3029 3028 3028 3028 3027 3027 3026 3025 3025 3025 3023 3023 3022 3022 3021 3020 3018 3017 3017 3016 3015 3014 3012 3010 3009 3008 3005 3003 3001 3000 2999 2997 2996 2995 2994 2992 2990 2989 2988 2987 2986 2984 2982 2982
3065 3063 3061 3059 3057 3055 3054 3052 3051 3050 3049 3047 3045 3044 3043 3042 3040 3040 3039 3038 3037 3036 3036 3036 3036 3036 3035 3035 3034 3034 3033 3032 3032 3032 3031 3030 3030 3029 3029 3028 3028 3028 3028 3027 3027 3027 3026 3026 3026 3025 3023 3023 3023 3022 3021 3020 3020 3020 3018 3016 3015 3015 3014 3012 3011 3009 3007 3006 3003 3001 2999 2997 2995 2993 2992 2991 2991 2989 2987 2986 2985 2984 2982 2980 2978 2977 2977
3064 3063 3060 3058 3056 3055 3053 3052 3051 3050 3048 3047 3045 3044 3043 3042 3041 3040 3039 3038 3037 3037 3036 3036 3036 3036 3036 3036 3035 3034 3033 3033 3032 3032 3031 3030 3029 3028 3027 3027 3027 3026 3026 3026 3026 3025 3024 3024 3024 3023 3021 3021 3021 3020 3019 3019 3018 3017 3015 3014 3013 3012 3011 3009 3008 3006 3004 3002 2999 2995 2993 2992 2991 2989 2987 2987 2986 2985 2983 2982 2981 2979 2977 2975 2973 2973 2973
3064 3062 3060 3058 3056 3054 3052 3051 3050 3049 3048 3046 3045 3044 3043 3042 3041 3040 3039 3038 3038 3037 3037 3037 3037 3037 3037 3036 3035 3034 3034 3033 3032 3032 3031 3029 3028 3028 3027 3026 3025 3025 3024 3024 3024 3023 3022 3022 3022 3021 3020 3019 3019 3018 3017 3017 3016 3014 3013 3012 3011 3009 3008 3006 3004 3002 3000 2998 2995 2991 2989 2987 2987 2986 2984 2983 2982 2981 2980 2978 2977 2975 2973 2972 2971 2970 2970
3063 3061 3059 3057 3055 3054 3052 3051 3049 3048 3047 3046 3044 3043 3042 3041 3040 3039 3039 3038 3038 3038 3037 3037 3037 3037 3037 3036 3035 3034 3033 3033 3032 3032 3031 3029 3028 3027 3026 3025 3024 3024 3023 3023 3022 3022 3021 3021 3020 3020 3018 3017 3017 3016 3015 3015 3014 3013 3011 3010 3008 3006 3004 3002 3000 2998 2995 2993 2991 2989 2987 2985 2984 2983 2981 2980 2979 2978 2976 2975 2973 2972 2970 2970 2969 2968 2967
3063 3061 3059 3057 3055 3053 3052 3050 3049 3047 3046 3045 3044 3043 3042 3041 3040 3040 3039 3038 3038 3038 3037 3037 3037 3037 3037 3037 3037 3034 3033 3032 3031 3030 3029 3028 3027 3026 3025 3025 3025 3024 3022 3022 3021 3021 3021 3020 3019 3018 3017 3016 3015 3015 3014 3013 3012 3011 3009 3007 3005 3003 3000 2997 2994 2993 2990 2988 2987 2985 2984 2983 2982 2980 2979 2977 2975 2974 2973 2972 2971 2970 2969 2968 2967 2966 2965
3062 3060 3059 3057 3055 3053 3051 3049 3048 3047 3046 3045 3044 3043 3042 3041 3040 3040 3039 3038 3038 3038 3037 3037 3037 3037 3037 3037 3036 3034 3032 3032 3031 3030 3028 3027 3026 3025 3024 3024 3024 3023 3021 3020 3021 3021 3020 3018 3017 3017 3016 3015 3014 3013 3012 3011 3010 3008 3006 3004 3002 2999 2996 2992 2990 2988 2987 2985 2984 2982 2981 2981 2979 2978 2976 2974 2973 2971 2971 2970 2969 2968 2967 2966 2965 2964 2963
3061 3059 3058 3056 3054 3052 3050 3049 3048 3047 3045 3044 3043 3042 3041 3041 3040 3040 3039 3038 3038 3037 3037 3037 3037 3036 3036 3035 3034 3033 3032 3032 3031 3029 3028 3027 3026 3024 3023 3023 3023 3022 3020 3020 3020 3019 3018 3017 3016 3016 3015 3014 3012 3012 3011 3009 3008 3006 3003 3001 2998 2995 2992 2989 2987 2985 2984 2983 2982 2981 2980 2978 2977 2975 2973 2971 2970 2969 2969 2968 2968 2967 2966 2965 2964 2963 2962
3060 3059 3057 3055 3054 3052 3050 3048 3047 3046 3045 3044 3043 3042 3041 3040 3040 3039 3039 3038 3038 3037 3036 3036 3036 3035 3034 3034 3034 3032 3031 3031 3030 3029 3028 3026 3025 3024 3023 3022 3022 3021 3020 3020 3019 3017 3016 3016 3015 3014 3014 3012 3011 3010 3009 3007 3006 3003 3001 2998 2995 2992 2990 2988 2985 2984 2982 2981 2980 2979 2977 2976 2974 2973 2971 2969 2968 2967 2967 2967 2967 2966 2965 2964 2963 2962 2960
3059 3058 3056 3054 3053 3051 3049 3048 3047 3045 3044 3044 3043 3042 3041 3040 3040 3039 3038 3038 3037 3037 3036 3036 3035 3034 3034 3034 3033 3032 3030 3029 3029 3029 3028 3026 3024 3024 3023 3022 3021 3019 3019 3019 3017 3016 3016 3016 3014 3013 3012 3011 3010 3009 3007 3005 3003 3001 2998 2995 2992 2990 2989 2986 2984 2982 2981 2979 2978 2976 2975 2973 2972 2971 2969 2968 2967 2967 2967 2967 2966 2966 2965 2964 2963 2961 2959
3058 3057 3055 3054 3052 3050 3049 3047 3046 3045 3044 3043 3042 3041 3041 3040 3039 3039 3038 3037 3037 3036 3036 3035 3034 3033 3033 3032 3032 3031 3029 3028 3028 3028 3027 3025 3024 3022 3022 3021 3020 3019 3018 3018 3017 3015 3015 3015 3013 3012 3011 3010 3008 3007 3005 3003 3001 2998 2995 2992 2991 2989 2987 2985 2982 2981 2979 2977 2975 2974 2973 2972 2970 2969 2968 2968 2967 2967 2967 2967 2966 2966 2964 2963 2962 2961 2959
3057 3056 3055 3053 3051 3049 3048 3046 3045 3044 3043 3042 3041 3041 3040 3039 3039 3038 3038 3037 3036 3035 3034 3034 3034 3033 3032 3031 3030 3030 3028 3027 3026 3025 3025 3024 3023 3021 3021 3021 3019 3018 3018 3017 3015 3014 3014 3014 3012 3011 3010 3008 3006 3005 3003 3001 2999 2996 2993 2991 2989 2987 2985 2983 2981 2979 2977 2975 2973 2972 2971 2970 2969 2969 2968 2968 2968 2967 2967 2967 2966 2965 2964 2963 2962 2961 2960
3056 3054 3053 3051 3050 3048 3046 3045 3044 3043 3042 3041 3040 3040 3039 3039 3038 3037 3037 3036 3036 3034 3033 3032 3032 3031 3030 3029 3028 3028 3027 3026 3025 3024 3023 3023 3021 3020 3020 3019 3018 3017 3017 3016 3014 3014 3013 3012 3011 3010 3008 3006 3005 3003 3001 2999 2997 2994 2991 2989 2988 2986 2984 2982 2980 2978 2976 2974 2972 2971 2971 2970 2969 2969 2968 2968 2968 2967 2967 2967 2966 2965 2965 2964 2963 2963 2962
3054 3053 3051 3050 3048 3047 3045 3044 3043 3042 3041 3040 3039 3039 3038 3038 3037 3036 3036 3035 3034 3033 3032 3030 3029 3029 3028 3027 3027 3026 3025 3024 3024 3023 3022 3022 3020 3019 3019 3018 3017 3016 3015 3014 3013 3013 3012 3011 3010 3009 3007 3005 3003 3001 2999 2997 2995 2992 2990 2988 2986 2984 2983 2981 2979 2977 2976 2974 2973 2972 2971 2971 2970 2969 2969 2968 2968 2968 2968 2967 2967 2966 2966 2966 2965 2965 2964
3053 3051 3050 3048 3047 3046 3044 3043 3042 3041 3040 3039 3038 3038 3037 3036 3036 3035 3035 3033 3032 3031 3030 3029 3027 3027 3027 3026 3025 3024 3024 3023 3022 3022 3021 3020 3019 3018 3018 3017 3016 3015 3014 3013 3012 3012 3011 3009 3008 3007 3005 3003 3002 3000 2997 2995 2993 2991 2989 2987 2986 2984 2982 2980 2979 2978 2977 2975 2974 2973 2972 2971 2971 2970 2970 2970 2970 2969 2969 2969 2968 2968 2968 2968 2967 2967 2966
3051 3049 3048 3046 3045 3044 3043 3042 3041 3040 3039 3038 3037 3036 3036 3035 3035 3034 3032 3031 3030 3029 3028 3027 3026 3025 3024 3024 3023 3023 3022 3022 3021 3020 3020 3019 3018 3017 3017 3015 3014 3013 3012 3012 3011 3011 3009 3008 3007 3005 3003 3002 3000 2998 2995 2993 2991 2990 2988 2987 2985 2984 2982 2981 2980 2979 2977 2976 2975 2974 2973 2973 2972 2972 2972 2971 2971 2971 2971 2971 2971 2971 2970 2970 2969 2969 2968
3049 3048 3046 3045 3043 3042 3041 3040 3039 3038 3037 3036 3035 3034 3034 3033 3032 3031 3030 3028 3027 3027 3026 3025 3024 3023 3022 3022 3021 3020 3020 3020 3020 3019 3018 3017 3016 3015 3014 3013 3013 3012 3011 3010 3010 3009 3008 3007 3006 3003 3001 3000 2999 2996 2994 2992 2990 2989 2988 2986 2985 2984 2983 2982 2981 2980 2979 2977 2976 2976 2976 2975 2975 2974 2974 2974 2974 2974 2974 2974 2973 2973 2973 2972 2972 2971 2971
3046 3045 3044 3043 3041 3040 3039 3038 3037 3036 3035 3034 3033 3032 3031 3030 3029 3028 3027 3026 3025 3024 3023 3023 3022 3021 3020 3020 3019 3019 3018 3018 3017 3017 3016 3015 3015 3013 3012 3011 3011 3010 3009 3009 3008 3008 3007 3006 3004 3002 3000 2999 2997 2995 2992 2991 2990 2989 2988 2986 2986 2985 2984 2983 2982 2982 2980 2979 2979 2979 2979 2978 2978 2977 2977 2977 2977 2977 2976 2976 2976 2976 2976 2975 2974 2974 2973
3044 3043 3042 3041 3039 3038 3037 3036 3034 3033 3032 3031 3030 3029 3028 3027 3026 3025 3024 3023 3022 3022 3021 3020 3020 3019 3018 3018 3017 3017 3017 3016 3015 3014 3013 3013 3013 3012 3010 3010 3009 3008 3008 3007 3006 3006 3005 3004 3002 3000 2998 2997 2996 2993 2991 2990 2989 2989 2987 2987 2986 2985 2985 2984 2984 2983 2982 2982 2982 2982 2982 2981 2981 2981 2981 2980 2980 2980 2979 2979 2978 2978 2978 2977 2977 2976 2976
3041 3040 3039 3038 3037 3036 3035 3033 3032 3031 3029 3028 3027 3026 3025 3024 3023 3022 3021 3020 3020 3019 3019 3018 3017 3017 3017 3016 3015 3015 3014 3014 3013 3012 3011 3010 3010 3009 3009 3008 3007 3006 3006 3005 3005 3004 3003 3002 3000 2998 2997 2996 2994 2992 2990 2989 2989 2988 2987 2987 2986 2986 2985 2985 2985 2985 2984 2984 2984 2984 2984 2984 2983 2983 2983 2983 2983 2982 2981 2981 2981 2981 2980 2980 2979 2979 2979
3037 3037 3036 3035 3034 3033 3032 3031 3030 3029 3027 3026 3024 3023 3022 3022 3021 3019 3018 3018 3017 3017 3016 3015 3015 3014 3014 3013 3013 3012 3012 3011 3010 3009 3008 3008 3008 3007 3006 3005 3005 3004 3004 3004 3003 3002 3001 2999 2997 2996 2996 2995 2993 2991 2989 2988 2988 2988 2987 2987 2986 2986 2986 2986 2986 2986 2985 2985 2986 2986 2986 2985 2985 2985 2985 2985 2984 2984 2984 2983 2983 2982 2982 2982 2982 2981 2981
3034 3033 3033 3032 3031 3030 3029 3028 3027 3026 3025 3024 3023 3021 3020 3019 3018 3017 3016 3015 3015 3015 3014 3014 3013 3012 3012 3011 3010 3010 3009 3008 3007 3006 3006 3005 3005 3004 3003 3002 3002 3002 3002 3002 3001 3000 2998 2997 2996 2995 2994 2993 2992 2990 2989 2988 2988 2987 2987 2986 2987 2986 2986 2987 2987 2987 2986 2986 2987 2987 2987 2987 2986 2986 2986 2986 2986 2985 2985 2985 2984 2984 2983 2983 2983 2983 2983
3030 3030 3029 3028 3027 3026 3025 3025 3024 3024 3022 3021 3020 3019 3017 3016 3015 3014 3013 3013 3013 3012 3012 3012 3011 3010 3009 3009 3008 3007 3006 3005 3004 3003 3002 3002 3001 3001 3000 3000 3000 3000 3000 2999 2998 2998 2997 2995 2994 2993 2993 2992 2991 2989 2988 2987 2987 2987 2986 2986 2986 2986 2986 2986 2987 2987 2987 2987 2987 2988 2988 2988 2988 2987 2987 2987 2986 2986 2986 2986 2985 2985 2984 2984 2984 2984 2984